Weather History for Oskaloosa, IA

Change the Weather History Date:

Thursday, January 10, 2013

  Actual Average (KOTM) Record (KOTM)
Temperature  
Mean Temperature 37 °F 22 °F  
Max Temperature 45 °F 31 °F 60 °F (1928)
Min Temperature 29 °F 13 °F -23 °F (1982)
Degree Days  
Heating Degree Days 28 43  
Month to date heating degree days 424  
Since 1 July heating degree days 2929  
Cooling Degree Days 0 0  
Month to date cooling degree days 0  
Year to date cooling degree days 0  
Moisture  
Dew Point 31 °F    
Average Humidity 82    
Maximum Humidity 95    
Minimum Humidity 41    
Precipitation  
Precipitation 0.12 in 0.03 in 0.36 in (1924)
Month to date precipitation 0.33  
Year to date precipitation 0.33  
Sea Level Pressure  
Sea Level Pressure 30.09 in    
Wind  
Wind Speed 10 mph (SE)    
Max Wind Speed 20 mph    
Max Gust Speed 26 mph    
Visibility 6 miles    
Events Fog , Rain , Snow    
T = Trace of Precipitation, MM = Missing Value Source: NWS Daily Summary

Daily Weather History Graph

Daily Weather History Graph

Search for Another Location

Airport:

Trip Planner

Search our weather history database for the weather conditions in past years. The results will help you decide how hot, cold, wet, or windy it might be!

Date:

Astronomy

Jan. 10, 2013 Rise Set
Actual Time 7:34 AM CST 5:00 PM CST
Civil Twilight 7:04 AM CST 5:31 PM CST
Nautical Twilight 6:29 AM CST 6:05 PM CST
Astronomical Twilight 5:56 AM CST 6:38 PM CST
Moon 6:15 AM CST (1/10) 4:09 PM CST (1/10)
Length of Visible Light 10h 27m
Length of Day
9h 25m
Waning Crescent, 2% of the Moon is Illuminated
Jan 10
Waning Crescent
Jan 11
New
Jan 18
First Quarter
Jan 26
Full
Feb 3
Last Quarter

Hourly Weather History & Observations

Time (CST) Temp. Windchill Dew Point Humidity Pressure Visibility Wind Dir Wind Speed Gust Speed Precip Events Conditions
12:15 AM 32.4 °F 24.6 °F 27.5 °F 82% 30.41 in 10.0 mi SE 9.2 mph - N/A   Clear
12:35 AM 31.3 °F 23.9 °F 26.6 °F 83% 30.40 in 10.0 mi ESE 8.1 mph - N/A   Clear
12:55 AM 32.4 °F 26.9 °F 27.5 °F 82% 30.40 in 10.0 mi SE 5.8 mph - N/A   Clear
2:15 AM 29.8 °F 22.2 °F 26.4 °F 87% 30.39 in 10.0 mi SSE 8.1 mph - N/A   Clear
2:35 AM 30.6 °F 22.4 °F 26.6 °F 85% 30.40 in 10.0 mi SSE 9.2 mph - N/A   Clear
2:55 AM 31.1 °F 23.1 °F 26.8 °F 84% 30.40 in 10.0 mi SSE 9.2 mph - N/A   Clear
3:15 AM 29.8 °F 21.5 °F 25.7 °F 85% 30.39 in 10.0 mi SSE 9.2 mph - N/A   Clear
3:35 AM 31.3 °F 25.6 °F 26.6 °F 83% 30.39 in 10.0 mi SE 5.8 mph - N/A   Clear
3:55 AM 31.6 °F 25.1 °F 27.0 °F 83% 30.37 in 10.0 mi SE 6.9 mph - N/A   Clear
4:15 AM 30.4 °F 22.9 °F 26.1 °F 84% 30.36 in 10.0 mi ESE 8.1 mph - N/A   Clear
4:35 AM 31.5 °F 24.2 °F 26.6 °F 82% 30.35 in 10.0 mi ESE 8.1 mph - N/A   Clear
4:55 AM 30.9 °F 25.2 °F 26.2 °F 83% 30.35 in 10.0 mi ESE 5.8 mph - N/A   Clear
5:15 AM 31.8 °F 23.9 °F 27.0 °F 82% 30.34 in 10.0 mi ESE 9.2 mph - N/A   Clear
5:35 AM 31.8 °F 23.9 °F 27.1 °F 83% 30.33 in 10.0 mi ESE 9.2 mph - N/A   Clear
5:55 AM 32.0 °F 23.6 °F 27.5 °F 83% 30.33 in 10.0 mi SE 10.4 mph - N/A   Clear
6:15 AM 32.0 °F 24.2 °F 27.3 °F 83% 30.32 in 10.0 mi SE 9.2 mph - N/A   Clear
6:35 AM 32.0 °F 24.2 °F 27.3 °F 83% 30.32 in 10.0 mi ESE 9.2 mph - N/A   Clear
6:55 AM 32.2 °F 24.4 °F 27.5 °F 83% 30.31 in 10.0 mi ESE 9.2 mph - N/A   Clear
7:55 AM 34.0 °F 26.0 °F 28.0 °F 79% 30.29 in 10.0 mi SE 10.4 mph - N/A   Clear
8:35 AM 35.2 °F 27.6 °F 28.0 °F 75% 30.26 in 10.0 mi ESE 10.4 mph - N/A   Clear
8:55 AM 36.5 °F 28.7 °F 28.4 °F 72% 30.26 in 10.0 mi ESE 11.5 mph - N/A   Clear
9:15 AM 37.2 °F 29.6 °F 28.4 °F 70% 30.25 in 10.0 mi ESE 11.5 mph - N/A   Mostly Cloudy
9:35 AM 37.9 °F 30.0 °F 27.5 °F 66% 30.23 in 10.0 mi ESE 12.7 mph - N/A   Mostly Cloudy
9:55 AM 39.0 °F 31.4 °F 27.1 °F 62% 30.22 in 10.0 mi ESE 12.7 mph - N/A   Scattered Clouds
10:15 AM 39.7 °F 32.3 °F 26.1 °F 58% 30.20 in 10.0 mi ESE 12.7 mph 18.4 mph N/A   Mostly Cloudy
10:35 AM 40.3 °F 32.2 °F 24.8 °F 54% 30.18 in 10.0 mi ESE 15.0 mph - N/A   Mostly Cloudy
10:55 AM 41.0 °F 33.5 °F 25.0 °F 53% 30.17 in 10.0 mi ESE 13.8 mph 18.4 mph N/A   Overcast
11:15 AM 42.1 °F 34.9 °F 24.6 °F 50% 30.15 in 10.0 mi SE 13.8 mph - N/A   Overcast
11:35 AM 43.7 °F 38.1 °F 24.6 °F 47% 30.12 in 10.0 mi SE 10.4 mph - N/A   Overcast
11:55 AM 44.4 °F 38.6 °F 24.3 °F 45% 30.10 in 10.0 mi SE 11.5 mph - N/A   Overcast
12:15 PM 45.0 °F 37.4 °F 22.3 °F 41% 30.07 in 10.0 mi SE 18.4 mph 25.3 mph N/A   Overcast
12:35 PM 44.8 °F 36.9 °F 23.4 °F 43% 30.05 in 10.0 mi SE 19.6 mph 25.3 mph N/A   Overcast
12:55 PM 43.9 °F 36.5 °F 25.0 °F 47% 30.03 in 10.0 mi ESE 16.1 mph - N/A   Overcast
1:35 PM 39.9 °F 31.1 °F 34.2 °F 80% 30.01 in 1.8 mi SE 17.3 mph 26.5 mph N/A Rain Light Rain
1:55 PM 38.5 °F 29.6 °F 35.1 °F 87% 30.01 in 1.5 mi SE 16.1 mph - N/A Rain Light Rain
2:15 PM 37.9 °F 29.2 °F 35.1 °F 89% 30.00 in 1.2 mi SE 15.0 mph - 0.02 in   Overcast
2:35 PM 37.4 °F 29.3 °F 35.1 °F 91% 29.98 in 1.5 mi ESE 12.7 mph - 0.03 in Rain Light Rain
2:55 PM 37.4 °F 28.9 °F 35.2 °F 92% 29.97 in 4.0 mi ESE 13.8 mph - 0.04 in Rain Light Rain
3:15 PM 37.6 °F 29.6 °F 35.6 °F 93% 29.97 in 3.0 mi ESE 12.7 mph - 0.01 in Rain Light Rain
3:35 PM 37.6 °F 28.8 °F 35.6 °F 93% 29.96 in 4.0 mi ESE 15.0 mph - 0.01 in Rain Light Rain
3:55 PM 37.8 °F 29.0 °F 35.8 °F 93% 29.96 in 10.0 mi SE 15.0 mph - 0.01 in   Overcast
4:15 PM 37.8 °F 29.4 °F 35.8 °F 93% 29.94 in 7.0 mi ESE 13.8 mph 19.6 mph N/A   Overcast
4:35 PM 37.6 °F 29.1 °F 35.6 °F 93% 29.93 in 1.5 mi ESE 13.8 mph - N/A   Overcast
4:55 PM 37.6 °F 29.1 °F 35.6 °F 93% 29.93 in 0.8 mi SE 13.8 mph 19.6 mph 0.01 in Rain Light Rain
5:15 PM 37.4 °F 29.8 °F 35.6 °F 93% 29.92 in 0.8 mi SE 11.5 mph 17.3 mph N/A Rain Light Rain
5:35 PM 37.6 °F 30.0 °F 35.8 °F 93% 29.92 in 1.0 mi SE 11.5 mph - 0.01 in Rain Rain
5:55 PM 37.6 °F 30.5 °F 36.0 °F 94% 29.91 in 1.2 mi ESE 10.4 mph - 0.04 in Rain Light Rain
6:15 PM 37.8 °F 30.7 °F 36.0 °F 93% 29.91 in 0.8 mi SE 10.4 mph - N/A Rain Light Rain
6:35 PM 37.6 °F 31.0 °F 36.0 °F 94% 29.90 in 0.2 mi SE 9.2 mph - N/A Snow Light Snow
6:55 PM 37.6 °F 31.6 °F 36.0 °F 94% 29.89 in 0.2 mi SE 8.1 mph - 0.01 in Rain Rain
7:15 PM 37.6 °F 33.1 °F 36.0 °F 94% 29.88 in 0.2 mi SE 5.8 mph - N/A Rain Light Rain
7:35 PM 37.4 °F 32.1 °F 35.8 °F 94% 29.87 in 0.2 mi ESE 6.9 mph - N/A Fog Fog
7:55 PM 37.6 °F 32.3 °F 36.0 °F 94% 29.86 in 0.2 mi ESE 6.9 mph - N/A Fog Fog
8:15 PM 37.6 °F 31.6 °F 36.0 °F 94% 29.85 in 0.2 mi ESE 8.1 mph - N/A Rain Rain
8:55 PM 38.1 °F 31.7 °F 36.5 °F 94% 29.83 in 0.8 mi ESE 9.2 mph - 0.01 in Rain Rain
9:15 PM 37.6 °F 29.6 °F 36.1 °F 95% 29.81 in 1.0 mi ESE 12.7 mph - N/A Snow Light Snow
9:35 PM 37.8 °F 30.2 °F 36.3 °F 95% 29.81 in 1.0 mi ESE 11.5 mph - N/A   Overcast
9:55 PM 37.8 °F 31.3 °F 36.5 °F 95% 29.80 in 1.2 mi SE 9.2 mph - N/A   Overcast
10:15 PM 37.9 °F 32.7 °F 36.5 °F 95% 29.79 in 1.2 mi SE 6.9 mph - N/A   Overcast
10:35 PM 38.3 °F 31.9 °F 36.7 °F 94% 29.77 in 0.8 mi SE 9.2 mph - N/A   Overcast
11:15 PM 38.3 °F 32.5 °F 36.7 °F 94% 29.75 in 0.5 mi SE 8.1 mph - N/A Fog Fog
11:35 PM 38.3 °F 31.4 °F 36.7 °F 94% 29.73 in 0.5 mi SE 10.4 mph - N/A Fog Fog
11:55 PM 38.5 °F 31.6 °F 36.9 °F 94% 29.72 in 0.5 mi SE 10.4 mph - N/A Fog Fog